Weather History for Wheaton NDB, MN

Change the Weather History Date:

Wednesday, January 2, 2013

  Actual Average Record
Temperature  
Mean Temperature 19 °F -  
Max Temperature 30 °F 23 °F 47 °F (1964)
Min Temperature 6 °F 3 °F -20 °F (2014)
Degree Days  
Heating Degree Days 46    
Moisture  
Dew Point 16 °F    
Average Humidity 84    
Maximum Humidity 93    
Minimum Humidity 69    
Precipitation  
Precipitation 0.00 in - - ()
Sea Level Pressure  
Sea Level Pressure 30.00 in    
Wind  
Wind Speed 9 mph (WNW)    
Max Wind Speed 20 mph    
Max Gust Speed 25 mph    
Visibility 10 miles    
Events Snow    
Averages and records for this station are not official NWS values.
T = Trace of Precipitation, MM = Missing Value Source: NWS Daily Summary

Daily Weather History Graph

Daily Weather History Graph

Search for Another Location

Airport:

Trip Planner

Search our weather history database for the weather conditions in past years. The results will help you decide how hot, cold, wet, or windy it might be!

Date:

Astronomy

Jan. 02, 2013 Rise Set
Actual Time 8:07 AM CST 4:53 PM CST
Civil Twilight 7:33 AM CST 5:27 PM CST
Nautical Twilight 6:55 AM CST 6:05 PM CST
Astronomical Twilight 6:19 AM CST 6:41 PM CST
Moon 10:46 PM CST (1/2) 10:32 AM CST (1/2)
Length of Visible Light 9h 54m
Length of Day
8h 46m
Waning Gibbous, 75% of the Moon is Illuminated
Jan 2
Waning Gibbous
Jan 4
Last Quarter
Jan 11
New
Jan 18
First Quarter
Jan 26
Full

Hourly Weather History & Observations

Time (CST) Temp. Windchill Dew Point Humidity Pressure Visibility Wind Dir Wind Speed Gust Speed Precip Events Conditions
12:15 AM 12.2 °F 0.7 °F 8.6 °F 85% 29.93 in 10.0 mi South 8.1 mph - N/A   Clear
12:34 AM 12.2 °F 0.7 °F 8.6 °F 85% 29.93 in 10.0 mi South 8.1 mph - N/A   Clear
12:55 AM 10.4 °F -1.5 °F 6.8 °F 85% 29.92 in 10.0 mi South 8.1 mph - N/A   Clear
1:14 AM 8.6 °F 0.1 °F 6.8 °F 92% 29.92 in 10.0 mi SSW 4.6 mph - N/A   Clear
1:35 AM 8.6 °F - 6.8 °F 92% 29.92 in 10.0 mi Calm Calm - N/A   Scattered Clouds
1:55 AM 8.6 °F 0.1 °F 5.0 °F 85% 29.92 in 10.0 mi South 4.6 mph - N/A   Mostly Cloudy
2:15 AM 10.4 °F 4.0 °F 6.8 °F 85% 29.91 in 10.0 mi South 3.5 mph - N/A   Overcast
2:35 AM 10.4 °F 4.0 °F 8.6 °F 92% 29.92 in 10.0 mi South 3.5 mph - N/A   Overcast
2:54 AM 12.2 °F 6.1 °F 8.6 °F 85% 29.91 in 10.0 mi South 3.5 mph - N/A   Overcast
3:14 AM 14.0 °F 6.5 °F 10.4 °F 86% 29.91 in 10.0 mi South 4.6 mph - N/A   Overcast
3:34 AM 15.8 °F 10.2 °F 12.2 °F 86% 29.91 in 10.0 mi SW 3.5 mph - N/A   Overcast
3:54 AM 17.6 °F 12.3 °F 14.0 °F 86% 29.91 in 10.0 mi SSW 3.5 mph - N/A Snow Light Snow
4:15 AM 17.6 °F 10.7 °F 15.8 °F 93% 29.90 in 10.0 mi SSW 4.6 mph - N/A   Overcast
4:35 AM 19.4 °F 12.8 °F 15.8 °F 86% 29.90 in 10.0 mi SSW 4.6 mph - N/A   Overcast
4:54 AM 19.4 °F 11.5 °F 17.6 °F 93% 29.89 in 10.0 mi SW 5.8 mph - N/A Snow Light Snow
5:14 AM 21.2 °F 14.9 °F 17.6 °F 86% 29.89 in 10.0 mi SW 4.6 mph - N/A   Overcast
5:34 AM 21.2 °F 13.6 °F 19.4 °F 93% 29.88 in 10.0 mi WSW 5.8 mph - N/A   Overcast
6:14 AM 24.8 °F 16.9 °F 21.2 °F 86% 29.89 in 10.0 mi WSW 6.9 mph - N/A   Overcast
6:34 AM 24.8 °F 19.1 °F 21.2 °F 86% 29.89 in 10.0 mi WSW 4.6 mph - N/A   Overcast
6:55 AM 26.6 °F 19.1 °F 23.0 °F 86% 29.88 in 10.0 mi West 6.9 mph - N/A   Overcast
7:15 AM 26.6 °F 16.8 °F 24.8 °F 93% 29.88 in 10.0 mi West 10.4 mph - N/A   Overcast
7:35 AM 28.4 °F 18.0 °F 24.8 °F 86% 29.88 in 10.0 mi West 12.7 mph - N/A   Overcast
7:54 AM 28.4 °F 18.5 °F 24.8 °F 86% 29.89 in 10.0 mi West 11.5 mph - N/A   Overcast
8:14 AM 28.4 °F 16.6 °F 24.8 °F 86% 29.89 in 10.0 mi West 16.1 mph - N/A   Overcast
8:34 AM 28.4 °F 18.0 °F 24.8 °F 86% 29.89 in 10.0 mi WNW 12.7 mph 18.4 mph N/A   Overcast
9:15 AM 28.4 °F 17.0 °F 23.0 °F 80% 29.91 in 10.0 mi WNW 15.0 mph 19.6 mph N/A   Overcast
9:35 AM 28.4 °F 19.7 °F 23.0 °F 80% 29.92 in 10.0 mi WNW 9.2 mph - N/A   Overcast
9:55 AM 28.4 °F 18.5 °F 24.8 °F 86% 29.92 in 10.0 mi WNW 11.5 mph - N/A   Overcast
10:15 AM 28.4 °F 20.4 °F 24.8 °F 86% 29.93 in 10.0 mi WNW 8.1 mph - N/A   Overcast
10:34 AM 28.4 °F 18.0 °F 24.8 °F 86% 29.93 in 10.0 mi West 12.7 mph - N/A   Overcast
10:54 AM 30.2 °F 19.8 °F 24.8 °F 80% 29.94 in 10.0 mi WNW 13.8 mph 17.3 mph N/A   Overcast
11:15 AM 30.2 °F 19.3 °F 24.8 °F 80% 29.94 in 10.0 mi WNW 15.0 mph - N/A   Overcast
11:34 AM 30.2 °F 19.3 °F 23.0 °F 75% 29.94 in 10.0 mi WNW 15.0 mph - N/A   Overcast
11:55 AM 30.2 °F 20.2 °F 23.0 °F 75% 29.95 in 10.0 mi WNW 12.7 mph 19.6 mph N/A   Overcast
12:15 PM 28.4 °F 17.0 °F 23.0 °F 80% 29.94 in 10.0 mi WNW 15.0 mph - N/A   Overcast
12:35 PM 28.4 °F 15.8 °F 21.2 °F 74% 29.95 in 10.0 mi WNW 18.4 mph 24.2 mph N/A   Overcast
12:54 PM 28.4 °F 15.8 °F 19.4 °F 69% 29.96 in 10.0 mi NW 18.4 mph 23.0 mph N/A   Mostly Cloudy
1:14 PM 26.6 °F 13.1 °F 21.2 °F 80% 29.96 in 10.0 mi NW 19.6 mph 25.3 mph N/A   Mostly Cloudy
1:34 PM 26.6 °F 13.1 °F 21.2 °F 80% 29.97 in 10.0 mi NW 19.6 mph 24.2 mph N/A   Overcast
1:55 PM 26.6 °F 14.7 °F 23.0 °F 86% 29.98 in 10.0 mi NNW 15.0 mph - N/A   Overcast
2:15 PM 26.6 °F 14.7 °F 23.0 °F 86% 29.98 in 10.0 mi NNW 15.0 mph 23.0 mph N/A   Mostly Cloudy
2:34 PM 26.6 °F 13.8 °F 19.4 °F 74% 29.99 in 10.0 mi NW 17.3 mph - N/A   Mostly Cloudy
2:54 PM 24.8 °F 12.9 °F 21.2 °F 86% 30.00 in 10.0 mi NW 13.8 mph - N/A   Overcast
3:14 PM 24.8 °F 13.4 °F 21.2 °F 86% 30.01 in 10.0 mi NW 12.7 mph 18.4 mph N/A   Overcast
3:34 PM 24.8 °F 12.4 °F 17.6 °F 74% 30.02 in 10.0 mi NNW 15.0 mph 20.7 mph N/A   Overcast
3:54 PM 24.8 °F 12.9 °F 17.6 °F 74% 30.03 in 10.0 mi NW 13.8 mph - N/A   Overcast
4:15 PM 23.0 °F 11.1 °F 15.8 °F 74% 30.04 in 10.0 mi NW 12.7 mph - N/A   Overcast
4:34 PM 21.2 °F 8.3 °F 15.8 °F 80% 30.04 in 10.0 mi NW 13.8 mph - N/A   Overcast
4:54 PM 21.2 °F 8.3 °F 15.8 °F 80% 30.05 in 10.0 mi NW 13.8 mph - N/A   Overcast
5:15 PM 21.2 °F 8.9 °F 15.8 °F 80% 30.07 in 10.0 mi NNW 12.7 mph - N/A   Overcast
5:34 PM 19.4 °F 6.0 °F 15.8 °F 86% 30.08 in 10.0 mi NNW 13.8 mph 20.7 mph N/A   Overcast
5:55 PM 19.4 °F 5.5 °F 15.8 °F 86% 30.09 in 10.0 mi NW 15.0 mph - N/A   Overcast
6:14 PM 17.6 °F 4.3 °F 14.0 °F 86% 30.09 in 10.0 mi NW 12.7 mph - N/A   Overcast
6:34 PM 15.8 °F 4.2 °F 12.2 °F 86% 30.11 in 10.0 mi NW 9.2 mph - N/A   Mostly Cloudy
7:14 PM 15.8 °F 2.1 °F 12.2 °F 86% 30.13 in 10.0 mi NNW 12.7 mph - N/A Snow Light Snow
7:34 PM 15.8 °F 0.9 °F 10.4 °F 79% 30.14 in 10.0 mi NNW 15.0 mph 18.4 mph N/A Snow Light Snow
7:54 PM 15.8 °F 0.9 °F 10.4 °F 79% 30.16 in 10.0 mi NNW 15.0 mph - N/A Snow Light Snow
8:14 PM 15.8 °F 1.4 °F 10.4 °F 79% 30.16 in 7.0 mi NNW 13.8 mph 20.7 mph N/A Snow Light Snow
8:34 PM 14.0 °F -0.2 °F 10.4 °F 86% 30.17 in 10.0 mi NNW 12.7 mph 20.7 mph N/A Snow Light Snow
8:54 PM 12.2 °F -3.1 °F 8.6 °F 85% 30.18 in 5.0 mi NNW 13.8 mph - N/A Snow Light Snow
9:14 PM 12.2 °F -3.7 °F 8.6 °F 85% 30.19 in 10.0 mi NNW 15.0 mph 19.6 mph N/A Snow Light Snow
9:34 PM 12.2 °F -4.8 °F 8.6 °F 85% 30.19 in 7.0 mi NNW 17.3 mph 21.9 mph N/A Snow Light Snow
9:55 PM 10.4 °F -5.4 °F 6.8 °F 85% 30.20 in 10.0 mi NW 13.8 mph 20.7 mph N/A   Overcast
10:15 PM 10.4 °F -5.4 °F 6.8 °F 85% 30.21 in 10.0 mi NW 13.8 mph - N/A Snow Light Snow
10:35 PM 10.4 °F -2.4 °F 6.8 °F 85% 30.21 in 10.0 mi NW 9.2 mph 18.4 mph N/A Snow Light Snow
11:14 PM 8.6 °F -4.7 °F 3.2 °F 79% 30.23 in 10.0 mi WNW 9.2 mph - N/A   Scattered Clouds
11:35 PM 8.6 °F -5.5 °F 3.2 °F 79% 30.24 in 10.0 mi WNW 10.4 mph - N/A   Mostly Cloudy
11:55 PM 6.8 °F -6.9 °F 3.2 °F 85% 30.25 in 10.0 mi WNW 9.2 mph - N/A   Scattered Clouds